Temperature
33 33 32 33 33 33 33 32 32 32 34 34 33 32 32 32 31 30 29 28 27 26 25 24 23 22 21 20 19 19 19 19 18 18 18 18 18 18 18 18 18 18 18 18
33 33 34 35 35 34 33 32 32 33 34 34 33 32 32 32 32 31 30 29 28 26 25 24 23 22 21 20 20 19 19 19 19 19 19 19 19 19 18 18 18 18 18 18
32 34 35 35 34 33 33 33 32 32 33 33 32 30 30 31 31 31 30 29 28 27 26 24 24 23 22 21 20 20 19 19 19 19 19 19 19 18 19 18 18 18 18 18
33 34 35 34 34 34 33 34 33 33 32 31 32 28 28 30 30 31 31 30 29 28 26 25 24 23 22 21 20 20 20 19 19 19 19 19 19 19 19 19 18 18 18 18
33 34 34 34 34 35 34 35 34 33 32 32 32 30 29 29 29 31 31 31 30 29 27 26 25 24 23 22 21 20 20 20 19 19 19 19 19 19 19 19 19 19 18 18
34 35 35 35 35 35 35 34 33 33 32 30 31 31 29 29 30 31 32 31 30 29 28 26 25 24 23 22 21 21 20 20 19 19 19 19 19 19 19 19 19 19 19 19
32 34 35 35 34 35 34 33 31 29 29 29 31 31 30 31 32 32 32 31 30 29 28 27 25 24 24 23 22 21 20 20 20 20 19 19 19 19 19 19 19 19 19 19
31 32 34 34 34 33 34 33 30 29 29 29 30 29 31 32 32 33 32 31 31 29 28 27 26 25 24 23 22 21 21 20 20 20 20 19 19 19 19 19 19 19 19 19
32 32 34 35 35 34 33 33 33 31 30 29 29 29 30 32 33 33 32 32 31 30 29 27 26 25 24 23 22 22 21 21 20 20 20 20 20 19 19 19 19 19 19 19
33 31 33 34 34 35 34 34 33 31 29 29 28 28 28 30 31 32 32 32 31 30 29 28 27 26 25 24 23 22 21 21 21 20 20 20 20 20 20 19 19 19 19 19
33 31 32 33 32 32 33 33 33 32 31 29 28 28 30 29 31 31 32 31 31 30 29 28 27 26 25 24 23 22 22 21 21 20 20 20 20 20 20 19 19 19 19 19
32 31 31 32 33 34 33 33 32 31 30 30 30 29 32 31 31 31 31 31 30 29 28 27 27 26 25 24 23 23 22 21 21 21 20 20 20 20 20 19 19 19 19 19
31 30 29 30 32 33 32 33 33 33 32 31 30 28 31 31 31 31 31 30 29 28 27 27 26 25 25 24 24 23 22 21 21 21 20 20 20 20 20 19 20 19 19 19
30 29 29 29 30 31 31 32 32 32 31 31 30 29 29 30 30 30 30 29 28 27 27 26 25 25 24 24 23 23 22 22 21 21 20 20 20 20 20 20 19 19 19 19
31 29 29 30 31 31 31 31 32 32 31 30 29 28 28 29 29 29 29 28 28 27 26 25 25 24 24 23 23 23 22 22 21 21 20 20 20 20 20 20 19 19 19 19
30 29 29 29 31 31 31 31 32 32 32 31 29 28 29 29 28 28 28 27 27 26 25 25 24 24 23 23 23 22 22 21 21 21 20 20 19 19 19 19 19 19 19 19
29 28 28 28 29 30 29 30 31 31 32 31 29 29 28 28 27 27 27 26 26 25 25 24 23 23 23 23 22 22 21 21 20 20 20 19 19 19 19 19 19 19 19 19
27 27 27 28 28 27 29 31 31 31 31 31 30 29 28 27 26 26 26 25 24 24 23 23 22 22 22 22 22 21 21 20 20 20 20 19 19 19 18 18 18 18 18 18
28 27 27 27 27 27 29 30 30 30 29 30 30 29 27 26 26 25 25 24 23 23 22 22 22 22 22 21 21 21 20 20 20 19 19 19 19 19 18 18 18 18 18 18
28 27 26 27 26 26 27 29 30 30 28 29 28 27 26 26 25 24 23 23 22 22 22 21 21 21 21 20 20 20 20 19 19 19 19 19 19 18 18 18 18 18 18 17
26 26 26 26 26 26 27 28 29 27 25 26 26 25 25 24 24 23 23 22 22 21 21 21 20 20 20 20 20 19 19 19 19 19 18 18 18 18 18 17 17 17 17 17
26 26 25 26 25 25 26 27 25 23 24 24 24 24 23 22 22 22 21 21 21 20 20 20 20 19 19 19 19 19 18 18 18 18 18 18 18 17 17 17 17 17 17 17
25 25 25 24 24 24 24 23 23 23 23 23 23 22 22 22 21 21 20 20 20 20 20 19 19 19 18 18 18 18 18 18 18 17 17 17 17 17 17 17 17 16 16 16
25 25 24 24 23 23 23 22 22 22 22 22 22 21 21 21 20 20 19 19 19 19 19 19 18 18 17 17 17 17 17 17 17 17 17 17 16 16 16 16 16 16 16 16
24 24 24 23 22 22 22 22 22 22 21 21 21 21 20 20 19 19 18 18 18 18 18 18 17 17 17 17 17 17 16 16 16 16 16 16 16 16 16 16 16 16 16 16
23 23 23 22 22 22 21 21 21 21 20 20 20 20 19 19 18 18 18 17 17 17 17 17 17 17 16 16 16 16 16 16 16 16 15 15 15 15 15 15 15 15 15 15
Wind_Speed
15 14 13 12 10 7 5 5 3 3 5 5 6 8 11 12 11 12 12 12 12 12 12 11 10 11 10 9 7 6 5 5 3 3 3 3 3 3 3 4 5 5 4 4
15 17 16 12 8 7 8 8 6 3 3 3 4 6 7 10 11 11 11 12 13 13 13 12 11 11 11 9 8 7 6 6 4 3 3 3 3 3 3 3 4 5 5 4
19 16 14 12 11 11 11 7 5 4 2 3 4 3 4 6 8 11 11 12 14 15 15 13 12 11 11 11 10 8 7 6 5 4 3 3 3 2 3 4 4 4 5 5
18 18 15 14 13 12 9 7 6 7 6 6 4 2 5 6 8 12 12 12 14 15 16 15 13 11 11 11 10 8 7 6 5 5 4 5 5 4 4 4 4 5 5 5
18 17 17 16 14 11 10 8 7 8 8 9 6 4 6 9 9 12 13 12 13 15 16 16 14 12 12 12 11 9 8 6 5 5 4 4 3 3 4 4 5 5 4 4
19 16 16 16 13 12 11 9 8 9 9 10 8 5 5 7 7 10 12 12 13 14 15 15 14 13 12 12 11 11 9 7 6 6 5 4 3 2 3 4 4 4 4 4
20 19 17 15 15 13 13 11 8 8 8 9 8 5 4 9 8 9 12 12 13 14 15 15 14 13 12 12 12 11 10 8 7 6 5 5 4 3 3 3 4 4 3 4
19 18 19 16 16 13 14 12 10 9 8 7 4 5 3 7 8 9 10 12 14 14 15 15 14 13 12 12 11 11 11 9 8 7 6 5 4 4 3 4 3 4 2 3
14 15 15 16 16 16 15 13 12 11 11 9 5 3 3 2 5 9 11 12 13 14 15 15 15 14 13 12 11 11 10 9 8 8 7 5 5 5 4 4 5 3 3 4
15 13 14 15 14 17 16 14 8 10 9 9 7 6 4 3 4 7 9 11 11 12 13 15 14 14 13 13 11 10 10 9 8 8 7 7 6 5 4 4 4 3 3 2
16 12 14 15 16 15 14 15 12 9 9 8 7 5 6 5 5 5 7 9 11 11 11 11 12 13 13 13 12 11 10 9 8 8 7 6 6 6 5 4 4 4 4 3
12 12 13 13 13 15 15 16 15 11 9 9 8 4 4 4 4 6 7 8 9 9 10 10 11 11 11 12 12 12 11 11 10 8 7 6 6 6 6 6 5 5 5 5
6 9 12 13 14 14 14 15 15 14 11 10 10 4 2 2 1 2 6 9 9 9 8 9 9 9 9 8 8 9 9 10 10 9 8 7 6 6 6 5 5 5 5 5
4 10 13 14 11 10 14 16 15 14 10 10 8 5 5 4 1 2 7 9 9 8 8 8 7 7 7 6 6 7 7 8 8 8 8 7 6 5 5 5 4 4 4 4
8 12 14 16 14 12 12 14 15 14 14 10 5 3 5 4 1 2 6 7 8 8 7 7 7 6 6 6 5 5 6 6 6 7 8 7 6 5 5 5 5 5 5 6
8 9 12 15 16 15 13 14 14 14 13 9 7 5 4 3 3 4 5 5 6 7 6 6 6 6 5 5 4 4 4 4 5 5 6 5 5 5 5 5 5 5 5 5
8 8 12 14 15 15 15 13 12 12 11 7 7 4 4 2 3 4 6 6 6 6 6 4 4 5 5 5 4 4 3 4 4 4 4 4 5 5 5 6 5 5 5 5
8 8 9 12 13 16 11 10 11 11 8 5 3 6 7 5 5 5 7 7 7 7 6 4 3 3 4 4 4 4 4 4 4 4 4 4 5 5 5 5 5 5 5 5
9 7 9 10 13 13 10 8 8 8 5 3 3 7 8 6 6 6 7 8 7 6 5 4 3 2 3 3 3 2 3 4 4 4 4 4 5 5 5 5 5 4 4 5
10 8 10 11 12 12 7 6 5 6 6 1 3 6 6 4 3 4 6 6 6 5 4 3 3 3 3 2 2 2 2 2 1 2 2 3 3 4 4 5 5 4 4 4
11 10 13 13 12 7 4 4 4 5 1 4 5 7 6 2 3 5 7 6 5 5 4 4 3 3 2 2 2 2 1 1 0 1 1 1 2 3 4 4 4 4 4 5
8 9 10 10 11 5 6 3 2 4 6 7 8 9 9 8 8 6 6 6 5 5 4 3 3 3 2 2 1 1 1 0 0 0 1 1 1 3 4 3 4 4 5 6
5 3 3 2 1 5 8 8 6 6 6 6 7 8 7 8 7 6 5 5 4 4 3 3 3 2 2 2 1 0 0 1 0 0 1 1 1 2 2 4 4 5 5 6
3 1 1 2 4 6 7 7 6 6 5 6 6 6 6 7 6 5 4 4 3 3 3 3 2 2 2 2 1 1 1 0 1 1 2 2 2 2 2 3 4 4 4 5
1 1 1 3 4 4 5 5 5 6 6 6 6 6 7 6 6 5 4 4 4 4 3 2 1 1 1 1 1 1 1 0 1 2 3 3 3 3 3 3 3 4 4 5
4 1 1 2 3 3 5 4 5 6 6 6 6 7 6 5 5 4 4 3 3 3 3 3 2 2 2 1 1 2 1 1 2 3 3 3 3 3 4 4 3 3 4 4
Wind_Direction
232 235 237 237 223 223 242 273 236 195 184 174 159 154 161 166 170 165 164 162 161 159 154 154 154 148 147 144 144 147 149 141 148 148 158 166 162 155 148 148 150 151 155 153
233 238 240 243 239 227 238 250 253 232 191 191 173 167 165 171 175 169 167 165 163 161 156 156 160 157 155 152 153 156 157 155 166 157 164 175 159 158 150 148 149 163 159 161
231 235 236 242 243 241 244 234 245 242 228 240 224 189 179 174 178 171 173 171 169 166 163 164 168 165 160 158 163 169 164 163 173 167 175 162 150 165 147 152 155 167 168 166
236 239 239 235 239 237 247 250 249 252 254 257 235 199 193 196 200 180 179 176 172 168 166 169 170 169 166 164 165 160 160 163 169 180 188 180 176 181 162 160 158 164 168 169
237 236 240 241 239 244 251 253 266 272 268 262 239 235 191 182 211 187 178 178 174 170 167 169 169 169 169 166 164 160 159 165 172 184 189 200 186 178 157 153 156 165 166 169
247 240 238 245 243 245 252 258 269 273 272 267 255 249 182 178 194 177 174 174 171 167 164 165 165 164 169 168 167 164 161 168 174 186 188 193 200 191 154 159 163 180 170 172
236 240 236 238 242 239 239 245 249 254 251 261 273 264 175 168 186 177 166 170 165 163 161 160 161 165 169 170 168 164 161 167 176 184 185 185 191 193 181 184 181 194 176 168
228 228 230 230 237 239 239 240 240 253 258 262 253 260 203 159 169 156 155 164 161 162 161 161 163 163 167 168 164 161 164 170 176 179 179 179 186 195 195 206 202 195 192 161
235 232 227 226 230 235 242 242 246 255 260 269 259 250 251 175 155 150 153 156 162 164 162 164 166 168 171 170 165 162 162 169 175 177 171 181 193 205 200 188 204 205 187 175
247 250 236 227 231 233 240 247 249 255 259 259 252 228 219 215 186 162 157 160 163 163 166 166 167 170 169 168 163 163 161 167 170 174 181 185 193 198 200 199 192 192 189 177
243 251 243 229 222 231 232 242 246 255 261 264 255 226 196 201 207 178 169 165 164 161 158 160 164 166 164 165 166 165 163 168 175 179 186 182 183 191 197 202 192 187 190 182
237 249 253 241 232 233 238 240 243 246 249 257 266 242 192 195 205 183 169 154 153 149 152 158 160 159 162 167 171 171 172 178 182 181 182 183 184 189 197 198 191 188 188 192
250 250 250 242 234 226 235 245 249 254 253 248 253 233 225 211 209 179 141 136 134 136 142 150 148 151 155 161 166 167 174 180 182 180 183 184 192 192 197 195 189 191 193 199
254 251 252 248 241 235 231 237 243 251 256 251 244 199 207 217 202 125 125 131 139 139 135 143 141 148 150 157 157 159 171 179 182 178 182 182 189 189 191 193 190 191 192 197
238 244 251 260 260 254 251 245 244 246 254 260 242 216 200 197 194 117 115 126 134 134 137 138 145 149 152 149 144 153 167 172 177 177 183 184 187 189 190 191 191 192 199 204
242 263 260 257 259 257 252 250 247 245 250 240 219 222 190 178 147 125 123 134 138 137 138 144 142 137 136 135 144 153 167 160 153 170 180 175 182 190 196 196 193 192 203 209
236 247 257 255 251 252 248 247 248 251 252 241 223 201 151 173 119 117 120 125 127 119 115 104 116 126 132 143 147 161 163 150 156 171 177 174 186 200 206 210 201 200 206 209
251 249 253 257 255 250 248 252 249 246 247 249 182 146 147 165 127 105 109 110 108 111 109 102 107 118 134 139 150 155 162 166 171 179 189 190 191 204 208 215 213 212 211 213
231 241 250 252 251 251 250 248 250 251 247 269 163 142 132 129 122 114 106 103 101 100 95 99 105 105 103 111 113 129 161 169 180 192 199 198 197 202 205 215 220 222 220 220
217 221 240 246 251 253 261 281 281 254 217 141 114 113 116 141 157 131 108 102 107 103 98 93 85 81 83 92 117 122 140 156 196 219 218 202 195 205 216 224 225 227 225 229
209 215 230 243 248 250 324 320 299 248 290 59 88 96 103 90 67 115 119 107 98 99 93 87 80 74 71 75 100 138 161 168 249 290 252 222 205 212 220 222 220 225 229 230
219 222 226 238 245 242 360 24 39 66 51 60 69 80 86 88 89 89 93 94 88 88 86 82 76 74 77 80 96 151 178 176 58 210 241 239 232 243 238 215 216 221 230 235
239 267 243 245 197 78 57 66 74 80 76 74 75 78 85 97 97 94 83 77 84 78 68 73 66 55 46 63 84 93 35 70 62 187 218 225 219 234 236 226 227 231 232 237
221 284 183 128 99 82 74 66 65 73 83 87 86 94 91 101 98 88 73 59 53 58 47 53 67 48 26 31 45 39 350 188 205 230 225 222 219 238 257 251 240 239 240 240
10 208 205 135 129 114 98 88 85 74 75 77 80 88 91 91 83 77 67 51 36 28 24 19 21 17 355 7 3 352 343 284 257 263 253 240 237 236 238 245 253 251 248 237
348 6 212 172 152 137 114 90 88 84 75 71 77 83 83 82 73 60 49 42 29 13 5 359 352 340 336 344 337 322 305 259 269 270 261 253 251 245 238 232 244 264 245 240
Height
1469 1471 1472 1468 1464 1467 1471 1475 1476 1472 1464 1467 1472 1477 1479 1482 1486 1490 1496 1500 1505 1509 1513 1517 1519 1521 1523 1524 1525 1526 1527 1528 1529 1530 1531 1532 1534 1535 1536 1537 1538 1539 1541 1542
1469 1470 1462 1458 1459 1464 1468 1476 1475 1470 1462 1465 1472 1476 1475 1479 1483 1487 1492 1497 1502 1507 1511 1515 1518 1520 1522 1523 1524 1525 1527 1528 1529 1530 1531 1533 1534 1536 1536 1537 1538 1539 1541 1542
1468 1462 1457 1457 1461 1466 1466 1469 1471 1472 1464 1465 1473 1483 1480 1479 1481 1485 1489 1493 1498 1503 1508 1512 1516 1519 1520 1522 1523 1525 1526 1527 1529 1530 1531 1533 1534 1535 1537 1537 1538 1539 1540 1541
1460 1456 1455 1458 1461 1462 1469 1460 1462 1466 1474 1478 1476 1501 1489 1480 1481 1481 1485 1489 1493 1499 1504 1509 1513 1516 1519 1521 1522 1524 1525 1526 1528 1529 1531 1533 1534 1535 1536 1537 1538 1539 1540 1541
1459 1454 1455 1458 1456 1455 1459 1455 1459 1465 1472 1476 1475 1490 1490 1480 1483 1478 1480 1484 1489 1495 1500 1506 1510 1514 1517 1519 1521 1522 1524 1525 1527 1528 1530 1532 1534 1535 1536 1537 1538 1539 1540 1540
1453 1449 1450 1451 1450 1451 1452 1457 1462 1466 1473 1489 1477 1483 1491 1480 1476 1473 1476 1481 1486 1491 1497 1503 1508 1512 1515 1518 1520 1521 1522 1524 1526 1527 1529 1531 1532 1534 1535 1536 1537 1538 1539 1540
1458 1451 1447 1448 1452 1451 1454 1468 1487 1496 1498 1495 1474 1478 1479 1467 1467 1467 1472 1478 1483 1489 1494 1500 1505 1509 1513 1516 1518 1520 1521 1523 1525 1526 1528 1529 1531 1532 1534 1535 1537 1538 1539 1539
1463 1462 1447 1445 1450 1455 1455 1464 1489 1505 1504 1491 1481 1486 1472 1460 1462 1465 1470 1475 1481 1486 1492 1497 1502 1506 1510 1513 1516 1518 1519 1521 1523 1525 1526 1528 1530 1532 1533 1534 1536 1537 1538 1538
1455 1457 1441 1441 1444 1448 1456 1459 1458 1473 1483 1494 1490 1483 1470 1460 1461 1463 1468 1473 1478 1484 1489 1495 1500 1504 1508 1511 1514 1516 1518 1520 1522 1524 1525 1527 1529 1530 1532 1533 1534 1535 1536 1537
1444 1455 1444 1439 1442 1443 1447 1450 1459 1472 1490 1500 1495 1491 1486 1472 1465 1464 1467 1472 1477 1482 1487 1492 1497 1501 1505 1509 1512 1514 1516 1518 1520 1522 1524 1526 1527 1529 1531 1532 1533 1534 1535 1536
1441 1453 1450 1444 1450 1451 1451 1454 1456 1462 1468 1489 1500 1492 1468 1468 1463 1464 1466 1470 1475 1480 1485 1490 1495 1499 1503 1506 1509 1512 1514 1517 1519 1521 1522 1524 1526 1527 1529 1530 1531 1532 1533 1533
1441 1449 1455 1447 1439 1439 1444 1448 1453 1469 1472 1471 1480 1484 1458 1461 1462 1462 1465 1469 1474 1479 1484 1488 1493 1497 1501 1505 1508 1510 1513 1515 1517 1519 1520 1522 1524 1525 1527 1528 1528 1529 1530 1531
1443 1451 1465 1463 1453 1443 1445 1444 1445 1449 1456 1468 1478 1483 1460 1461 1462 1463 1465 1470 1475 1479 1483 1487 1491 1495 1499 1503 1506 1508 1511 1513 1515 1517 1518 1520 1521 1523 1524 1525 1526 1527 1528 1529
1445 1453 1460 1465 1456 1447 1449 1447 1445 1451 1462 1466 1468 1473 1466 1463 1464 1465 1467 1471 1475 1480 1483 1487 1490 1494 1497 1501 1503 1506 1508 1511 1513 1514 1516 1517 1518 1520 1521 1522 1523 1524 1525 1526
1444 1452 1452 1448 1443 1442 1445 1446 1445 1449 1451 1460 1464 1468 1467 1463 1465 1467 1468 1472 1476 1480 1484 1487 1491 1493 1496 1499 1501 1504 1506 1508 1510 1511 1513 1515 1516 1517 1518 1519 1520 1521 1522 1523
1445 1451 1451 1452 1444 1442 1446 1445 1444 1445 1446 1452 1458 1464 1462 1463 1465 1467 1470 1474 1477 1480 1484 1487 1490 1492 1495 1497 1499 1502 1504 1506 1508 1509 1511 1512 1514 1515 1516 1517 1518 1518 1519 1520
1447 1454 1459 1458 1449 1448 1454 1446 1445 1445 1442 1447 1459 1460 1460 1464 1467 1469 1472 1475 1478 1481 1484 1486 1489 1491 1493 1496 1498 1500 1502 1504 1505 1507 1508 1510 1511 1512 1513 1514 1515 1515 1516 1516
1451 1455 1456 1456 1458 1470 1451 1437 1437 1440 1441 1443 1449 1455 1460 1465 1469 1472 1474 1477 1480 1483 1485 1488 1489 1491 1493 1495 1497 1499 1500 1502 1503 1504 1505 1507 1507 1509 1510 1511 1511 1512 1512 1513
1447 1453 1457 1458 1462 1459 1447 1439 1440 1444 1448 1446 1450 1455 1461 1466 1469 1473 1476 1479 1482 1484 1486 1488 1490 1491 1493 1494 1496 1497 1498 1500 1501 1502 1503 1504 1505 1505 1506 1507 1507 1508 1509 1509
1444 1449 1457 1457 1466 1468 1454 1442 1440 1444 1454 1451 1453 1457 1462 1466 1470 1476 1478 1480 1483 1485 1487 1488 1490 1491 1492 1494 1495 1495 1497 1497 1498 1499 1500 1501 1502 1503 1503 1503 1504 1504 1505 1505
1450 1453 1456 1457 1461 1458 1449 1445 1444 1460 1465 1457 1457 1460 1465 1468 1472 1477 1478 1481 1483 1485 1487 1489 1490 1491 1492 1492 1493 1494 1494 1495 1496 1496 1497 1498 1498 1499 1499 1500 1500 1500 1501 1501
1449 1453 1455 1456 1462 1466 1452 1449 1456 1464 1462 1462 1463 1465 1469 1471 1473 1477 1479 1482 1484 1486 1487 1488 1489 1490 1491 1491 1491 1492 1492 1493 1493 1493 1494 1494 1495 1496 1496 1496 1496 1496 1497 1497
1446 1449 1449 1456 1461 1459 1458 1459 1462 1463 1465 1467 1468 1469 1472 1474 1476 1479 1481 1483 1484 1486 1487 1487 1488 1489 1490 1490 1490 1490 1490 1490 1490 1490 1490 1491 1491 1492 1492 1492 1492 1492 1493 1493
1447 1447 1451 1456 1459 1460 1462 1464 1466 1467 1469 1469 1470 1472 1474 1476 1478 1480 1482 1483 1485 1485 1486 1486 1487 1487 1487 1487 1487 1487 1487 1487 1487 1487 1487 1487 1488 1488 1489 1489 1489 1489 1489 1489
1449 1451 1453 1458 1462 1463 1465 1467 1468 1470 1470 1471 1472 1474 1476 1478 1480 1481 1482 1483 1484 1485 1485 1486 1486 1486 1486 1486 1485 1485 1485 1484 1484 1484 1483 1484 1484 1484 1485 1485 1485 1485 1485 1485
1453 1453 1456 1460 1462 1462 1466 1468 1469 1471 1473 1474 1475 1477 1478 1480 1481 1482 1483 1484 1484 1484 1484 1484 1484 1484 1484 1483 1483 1482 1482 1482 1481 1480 1480 1481 1481 1481 1482 1482 1481 1481 1481 1481